When you browse on this site, cookies collect data to enhance your experience and personalize the content and advertising you see.
Visit our Privacy Policy to learn more. By continuing to use the site, you agree to this use of cookies and data.
  • en France
  • Liste des pays
  • À 7 jours
  • Température de l'eau
  • Carte satellitaire
  • Carte météo
  • Widgets météo
  • user-avatar
    Se connecter

    Météo par heure à Sydney

    Ce jour, 17 Juillet, Mercredi

    Heure Température Précipitation Vent Pression Humidité
    00:00 +10°C° 0 mm 5 m/s 763 mmHg 70%
    01:00 +9°C° 0 mm 5 m/s 763 mmHg 71%
    02:00 +9°C° 0 mm 6 m/s 763 mmHg 72%
    03:00 +9°C° 0 mm 6 m/s 763 mmHg 72%
    04:00 +9°C° 0 mm 5 m/s 763 mmHg 72%
    05:00 +8°C° 0 mm 5 m/s 763 mmHg 73%
    06:00 +8°C° 0 mm 5 m/s 763 mmHg 73%
    07:00 +8°C° 0 mm 5 m/s 763 mmHg 74%
    08:00 +10°C° 0 mm 5 m/s 763 mmHg 67%
    09:00 +12°C° 0 mm 5 m/s 763 mmHg 60%
    10:00 +14°C° 0 mm 3 m/s 763 mmHg 52%
    11:00 +17°C° 0 mm 3 m/s 762 mmHg 47%
    12:00 +18°C° 0 mm 3 m/s 761 mmHg 42%
    13:00 +19°C° 0 mm 3 m/s 760 mmHg 37%
    14:00 +19°C° 0 mm 3 m/s 760 mmHg 37%
    15:00 +19°C° 0 mm 3 m/s 759 mmHg 37%
    16:00 +19°C° 0 mm 2 m/s 759 mmHg 37%
    17:00 +17°C° 0 mm 3 m/s 759 mmHg 42%
    18:00 +14°C° 0 mm 5 m/s 760 mmHg 48%
    19:00 +11°C° 0 mm 6 m/s 760 mmHg 53%
    20:00 +12°C° 0 mm 5 m/s 760 mmHg 55%
    21:00 +10°C° 0 mm 5 m/s 760 mmHg 56%
    22:00 +9°C° 0 mm 5 m/s 760 mmHg 58%
    23:00 +9°C° 0 mm 5 m/s 760 mmHg 60%

    Demain, 18 Juillet, Jeudi

    Heure Température Précipitation Vent Pression Humidité
    00:00 +8°C° 0 mm 5 m/s 760 mmHg 61%
    01:00 +8°C° 0 mm 5 m/s 760 mmHg 63%
    02:00 +8°C° 0 mm 4 m/s 760 mmHg 65%
    03:00 +7°C° 0 mm 4 m/s 759 mmHg 66%
    04:00 +7°C° 0 mm 4 m/s 759 mmHg 67%
    05:00 +7°C° 0 mm 4 m/s 760 mmHg 68%
    06:00 +7°C° 0 mm 4 m/s 760 mmHg 69%
    07:00 +7°C° 0 mm 5 m/s 761 mmHg 69%
    08:00 +8°C° 0 mm 5 m/s 761 mmHg 61%
    09:00 +10°C° 0 mm 5 m/s 761 mmHg 53%
    10:00 +13°C° 0 mm 5 m/s 762 mmHg 45%
    11:00 +15°C° 0 mm 4 m/s 761 mmHg 39%
    12:00 +17°C° 0 mm 4 m/s 761 mmHg 33%
    13:00 +19°C° 0 mm 3 m/s 760 mmHg 27%
    14:00 +19°C° 0 mm 3 m/s 760 mmHg 28%
    15:00 +18°C° 0 mm 2 m/s 760 mmHg 29%
    16:00 +18°C° 0 mm 2 m/s 760 mmHg 30%
    17:00 +16°C° 0 mm 2 m/s 761 mmHg 37%
    18:00 +14°C° 0 mm 2 m/s 761 mmHg 44%
    19:00 +12°C° 0 mm 2 m/s 762 mmHg 50%
    20:00 +10°C° 0 mm 3 m/s 762 mmHg 52%
    21:00 +10°C° 0 mm 3 m/s 762 mmHg 54%
    22:00 +8°C° 0 mm 4 m/s 763 mmHg 56%
    23:00 +7°C° 0 mm 4 m/s 763 mmHg 58%

    Après-demain, 19 Juillet, Vendredi

    Heure Température Précipitation Vent Pression Humidité
    00:00 +7°C° 0 mm 4 m/s 763 mmHg 61%
    01:00 +6°C° 0 mm 4 m/s 763 mmHg 64%
    02:00 +6°C° 0 mm 4 m/s 763 mmHg 63%
    03:00 +6°C° 0 mm 5 m/s 762 mmHg 61%
    04:00 +7°C° 0 mm 5 m/s 762 mmHg 60%
    05:00 +7°C° 0 mm 5 m/s 763 mmHg 62%
    06:00 +6°C° 0 mm 5 m/s 763 mmHg 63%
    07:00 +6°C° 0 mm 5 m/s 764 mmHg 64%
    08:00 +8°C° 0 mm 5 m/s 764 mmHg 59%
    09:00 +12°C° 0 mm 4 m/s 764 mmHg 54%
    10:00 +14°C° 0 mm 4 m/s 764 mmHg 48%
    11:00 +16°C° 0 mm 3 m/s 764 mmHg 44%
    12:00 +18°C° 0 mm 3 m/s 764 mmHg 40%
    13:00 +20°C° 0 mm 2 m/s 763 mmHg 35%
    14:00 +19°C° 0 mm 2 m/s 763 mmHg 37%
    15:00 +19°C° 0 mm 2 m/s 763 mmHg 38%
    16:00 +19°C° 0 mm 2 m/s 763 mmHg 40%
    17:00 +17°C° 0 mm 2 m/s 764 mmHg 47%
    18:00 +15°C° 0 mm 1 m/s 765 mmHg 54%
    19:00 +13°C° 0 mm 1 m/s 765 mmHg 62%
    20:00 +13°C° 0 mm 1 m/s 766 mmHg 64%
    21:00 +12°C° 0 mm 2 m/s 766 mmHg 66%
    22:00 +10°C° 0 mm 2 m/s 766 mmHg 68%
    23:00 +10°C° 0 mm 2 m/s 766 mmHg 70%

    20 Juillet, Samedi

    Heure Température Précipitation Vent Pression Humidité
    00:00 +9°C° 0 mm 2 m/s 766 mmHg 72%
    01:00 +8°C° 0 mm 3 m/s 766 mmHg 75%
    02:00 +8°C° 0 mm 3 m/s 766 mmHg 76%
    03:00 +8°C° 0 mm 2 m/s 766 mmHg 78%
    04:00 +7°C° 0 mm 2 m/s 766 mmHg 79%
    05:00 +7°C° 0 mm 2 m/s 766 mmHg 80%
    06:00 +7°C° 0 mm 2 m/s 766 mmHg 82%
    07:00 +6°C° 0 mm 2 m/s 766 mmHg 83%
    08:00 +8°C° 0 mm 2 m/s 766 mmHg 74%
    09:00 +10°C° 0 mm 2 m/s 766 mmHg 64%
    10:00 +13°C° 0 mm 2 m/s 766 mmHg 55%
    11:00 +15°C° 0 mm 2 m/s 765 mmHg 49%
    12:00 +17°C° 0 mm 2 m/s 764 mmHg 43%
    13:00 +19°C° 0 mm 2 m/s 763 mmHg 36%
    14:00 +19°C° 0 mm 3 m/s 763 mmHg 37%
    15:00 +19°C° 0 mm 3 m/s 763 mmHg 37%
    16:00 +19°C° 0 mm 4 m/s 762 mmHg 37%
    17:00 +17°C° 0 mm 4 m/s 763 mmHg 46%
    18:00 +14°C° 0 mm 4 m/s 763 mmHg 55%
    19:00 +12°C° 0 mm 4 m/s 763 mmHg 64%
    20:00 +12°C° 0 mm 4 m/s 763 mmHg 63%
    21:00 +11°C° 0 mm 4 m/s 763 mmHg 63%
    22:00 +10°C° 0 mm 4 m/s 763 mmHg 63%
    23:00 +10°C° 0 mm 4 m/s 763 mmHg 65%

    21 Juillet, Dimanche

    Heure Température Précipitation Vent Pression Humidité
    00:00 +8°C° 0 mm 4 m/s 763 mmHg 68%
    01:00 +8°C° 0 mm 4 m/s 762 mmHg 71%
    02:00 +8°C° 0 mm 3 m/s 762 mmHg 73%
    03:00 +8°C° 0 mm 3 m/s 762 mmHg 75%
    04:00 +7°C° 0 mm 3 m/s 762 mmHg 77%
    05:00 +7°C° 0 mm 3 m/s 762 mmHg 78%
    06:00 +7°C° 0 mm 3 m/s 763 mmHg 78%
    07:00 +7°C° 0 mm 3 m/s 763 mmHg 78%
    08:00 +9°C° 0 mm 3 m/s 763 mmHg 69%
    09:00 +11°C° 0 mm 3 m/s 762 mmHg 59%
    10:00 +14°C° 0 mm 3 m/s 762 mmHg 49%
    11:00 +17°C° 0 mm 2 m/s 762 mmHg 43%
    12:00 +19°C° 0 mm 2 m/s 761 mmHg 37%
    13:00 +22°C° 0 mm 1 m/s 760 mmHg 31%
    14:00 +21°C° 0 mm 2 m/s 760 mmHg 31%
    15:00 +21°C° 0 mm 2 m/s 760 mmHg 31%
    16:00 +21°C° 0 mm 3 m/s 760 mmHg 31%
    17:00 +20°C° 0 mm 3 m/s 761 mmHg 37%
    18:00 +18°C° 0 mm 2 m/s 761 mmHg 43%
    19:00 +16°C° 0 mm 2 m/s 762 mmHg 50%
    20:00 +15°C° 0 mm 2 m/s 762 mmHg 54%
    21:00 +13°C° 0 mm 3 m/s 762 mmHg 58%
    22:00 +12°C° 0 mm 3 m/s 762 mmHg 63%
    23:00 +12°C° 0 mm 3 m/s 762 mmHg 66%

    22 Juillet, Lundi

    Heure Température Précipitation Vent Pression Humidité
    00:00 +11°C° 0 mm 3 m/s 762 mmHg 70%
    01:00 +10°C° 0 mm 3 m/s 762 mmHg 74%
    02:00 +10°C° 0 mm 3 m/s 762 mmHg 76%
    03:00 +10°C° 0 mm 3 m/s 762 mmHg 78%
    04:00 +9°C° 0 mm 3 m/s 762 mmHg 80%
    05:00 +9°C° 0 mm 3 m/s 762 mmHg 80%
    06:00 +9°C° 0 mm 3 m/s 762 mmHg 80%
    07:00 +9°C° 0 mm 3 m/s 763 mmHg 80%
    08:00 +11°C° 0 mm 3 m/s 763 mmHg 70%
    09:00 +13°C° 0 mm 3 m/s 763 mmHg 59%
    10:00 +17°C° 0 mm 3 m/s 762 mmHg 49%
    11:00 +19°C° 0 mm 2 m/s 762 mmHg 43%
    12:00 +22°C° 0 mm 1 m/s 761 mmHg 36%
    13:00 +24°C° 0 mm 1 m/s 761 mmHg 30%
    14:00 +23°C° 0 mm 2 m/s 761 mmHg 32%
    15:00 +22°C° 0 mm 3 m/s 761 mmHg 34%
    16:00 +22°C° 0 mm 3 m/s 760 mmHg 35%
    17:00 +20°C° 0 mm 3 m/s 761 mmHg 44%
    18:00 +18°C° 0 mm 3 m/s 761 mmHg 53%
    19:00 +16°C° 0 mm 2 m/s 762 mmHg 62%
    20:00 +14°C° 0 mm 3 m/s 762 mmHg 61%
    21:00 +14°C° 0 mm 3 m/s 762 mmHg 60%
    22:00 +13°C° 0 mm 3 m/s 762 mmHg 59%
    23:00 +13°C° 0 mm 3 m/s 762 mmHg 63%
    Voir plus